157  
FPUS82 KCHS 180527  
OPUCHS  
 
TEST   
..KCHS/KSAV GATEWAY OBSERVATIONS
 
TEST  
NATIONAL WEATHER SERVICE CHARLESTON SC  
100 AM EDT MON JUN 18 2018  
 
NOTE: "FAIR" INDICATES FEW OR NO CLOUDS BELOW 12,000 FEET WITH NO  
SIGNIFICANT WEATHER AND/OR OBSTRUCTIONS TO VISIBILITY.  
 
SCZ050-WAZ558-NCZ071-TXZ119-213-PAZ071-DCZ001-FLZ074-172-MI076-  
NYZ176-178-MAZ016-IL014-TNZ027-NJZ106-GAZ044-MD014-180600-  
   
..GATEWAY OBSERVATIONS FOR CHARLESTON INTERNATIONAL
 
 
 
CITY SKY/WX TMP DP RH WIND PRES REMARKS  
CHAS AIRPORT FAIR 77 75 93 S3 30.13F  
SEATTLE PTCLDY 78 44 29 N7 29.89R  
CHARLOTTE FAIR 79 70 74 CALM 30.12S  
DALLAS DFW MOCLDY 81 74 79 SE12G22 29.94S  
DALLAS LOVE PTCLDY 82 73 74 SE17 29.96R  
PHILLADELPHIA MOCLDY 71 66 84 S6 30.08S  
WASH NATIONAL MOCLDY 77 67 71 CALM 30.07S  
BALTIMORE FAIR 75 68 78 CALM 30.07R  
MIAMI MOCLDY 80 76 87 E6 30.09F  
DETROIT FAIR 82 67 60 SW8 30.00R  
NEWARK FAIR 75 61 61 SW13 30.06S  
LAGUARDIA FAIR 77 59 53 SW10 30.06R  
J F K MOCLDY 68 65 90 SW6 30.08S  
BOSTON LOGAN FAIR 69 54 58 SW12 30.03S  
FT. LAUDERDALE FAIR 81 77 88 E6 30.09F  
CHICAGO O'HARE FAIR 84 69 60 SW8 29.97S  
CHICAGO MIDWAY MOCLDY 84 71 65 S10 29.97S  
HOUSTON BUSH MOCLDY 79 75 87 E13 29.94S  
HOUSTON HOBBY LGT RAIN 78 78 100 SE8 29.93S  
NASHVILLE NOT AVBL  
ATLANTA FAIR 73 67 81 CALM 30.15F  
 

 
 
GAZ044-118-TXZ119-213-NCZ071-DCZ001-MDZ014-506-PAZ021-071-NJZ106-  
NYZ176-178-MAZ106-OHZ011-021-055-MIZ076-KYZ091-ILZ014-INZ047-  
MNZ060-ONZ431-180600-  
   
..GATEWAY OBSERVATIONS FOR SAVANNAH INTERNATIONAL
 
 
 
CITY SKY/WX TMP DP RH WIND PRES REMARKS  
SAVANNAH ARPT FAIR 75 73 93 CALM 30.14S  
ATLANTA FAIR 73 67 81 CALM 30.15F  
CHARLOTTE FAIR 79 70 74 CALM 30.12S  
DALLAS DFW MOCLDY 81 74 79 SE12G22 29.94S  
HOUSTON BUSH MOCLDY 79 75 87 E13 29.94S  
WASH NATIONAL MOCLDY 77 67 71 CALM 30.07S  
WASH DULLES FAIR 73 70 90 CALM 30.08R  
BALTIMORE FAIR 75 68 78 CALM 30.07R  
PHILADELPHIA MOCLDY 71 66 84 S6 30.08S  
NEWARK FAIR 75 61 61 SW13 30.06S  
LAGUARDIA FAIR 77 59 53 SW10 30.06R  
J F K MOCLDY 68 65 90 SW6 30.08S  
BOSTON FAIR 69 54 58 SW12 30.03S  
PITTSBURG FAIR 78 71 79 SW6 30.10R  
AKRON FAIR 76 70 82 SW6 30.08S  
CLEVELAND FAIR 81 73 76 S10 30.05S  
CINCINNATI MOCLDY 76 70 82 SW3 30.09R  
COLUMBUS FAIR 74 69 85 S10G17 30.08S  
DETROIT FAIR 82 67 60 SW8 30.00R  
CHICAGO O'HARE FAIR 84 69 60 SW8 29.97S  
MINNEAPOLIS CLOUDY 73 72 96 NW10 29.87R  
INDIANAPOLIS FAIR 78 73 84 SW6 30.07R  
TORONTO CANADA PTCLDY 79 66 65 SW8 29.93F  
 

 
 
 
CLICK HERE TO GO TO PREVIOUS BULLETINS.

The Nexlab SC Page
The Nexlab GA Page Main Text Page